EW3649 Weather Reports


time (UTC)temp
C
wind
direction
speed
KPH
gust
KPH
rain 1hr
cm
rain 24hr
cm
rain mn
cm
humidity
%
barometer
mb
20260504212007 26 231 0.0 1.6 0.00 0.00 0.00 44 1010.3
20260504211504 26 231 0.0 1.6 0.00 0.00 0.00 42 1010.3
20260504211006 26 0 0.0 0.0 0.00 0.00 0.00 41 1010.3
20260504210504 26 222 0.0 3.2 0.00 0.00 0.00 43 1010.3
20260504210006 26 221 0.0 3.2 0.00 0.00 0.00 45 1010.4
20260504205504 26 220 0.0 3.2 0.00 0.00 0.00 43 1010.5
20260504205006 26 227 0.0 3.2 0.00 0.00 0.00 44 1010.5
20260504204504 25 237 0.0 3.2 0.00 0.00 0.00 45 1010.5
20260504204005 25 240 0.0 1.6 0.00 0.00 0.00 43 1010.4
20260504203505 25 240 0.0 1.6 0.00 0.00 0.00 42 1010.4
20260504203005 25 231 0.0 4.8 0.00 0.00 0.00 44 1010.4
20260504202504 25 231 0.0 4.8 0.00 0.00 0.00 43 1010.4
20260504202004 25 231 0.0 1.6 0.00 0.00 0.00 44 1010.4
20260504201504 25 231 0.0 3.2 0.00 0.00 0.00 45 1010.4
20260504201005 25 229 0.0 6.4 0.00 0.00 0.00 43 1010.5
20260504200005 25 226 0.0 8.0 0.00 0.00 0.00 44 1010.5
20260504195504 25 219 0.0 3.2 0.00 0.00 0.00 44 1010.6
20260504195006 25 220 0.0 1.6 0.00 0.00 0.00 44 1010.7
20260504194504 24 228 0.0 1.6 0.00 0.00 0.00 44 1010.6
20260504193505 25 227 0.0 4.8 0.00 0.00 0.00 46 1010.6
20260504193006 25 227 0.0 1.6 0.00 0.00 0.00 46 1010.7
20260504192504 25 227 0.0 1.6 0.00 0.00 0.00 48 1010.7
20260504192006 25 223 0.0 6.4 0.00 0.00 0.00 49 1010.8
20260504191504 24 223 0.0 6.4 0.00 0.00 0.00 48 1010.7
20260504191006 24 235 0.0 3.2 0.00 0.00 0.00 52 1010.8
20260504190504 24 234 0.0 3.2 0.00 0.00 0.00 52 1010.7
20260504190005 24 233 0.0 4.8 0.00 0.00 0.00 51 1010.8
20260504185504 23 232 0.0 4.8 0.00 0.00 0.00 52 1010.8
20260504185005 23 234 0.0 4.8 0.00 0.00 0.00 51 1010.9
20260504184504 23 241 0.0 1.6 0.00 0.00 0.00 51 1010.8
20260504184006 23 241 0.0 1.6 0.00 0.00 0.00 53 1010.9
20260504183504 23 0 0.0 0.0 0.00 0.00 0.00 51 1010.9
20260504183006 23 238 0.0 4.8 0.00 0.00 0.00 51 1011.0
20260504181505 23 238 0.0 3.2 0.00 0.00 0.00 54 1011.1
20260504181006 23 0 0.0 0.0 0.00 0.00 0.00 52 1011.1
20260504180504 23 203 0.0 1.6 0.00 0.00 0.00 53 1011.1
20260504180006 22 203 0.0 1.6 0.00 0.00 0.00 54 1011.1
20260504175504 22 203 0.0 3.2 0.00 0.00 0.00 55 1011.0
20260504175006 22 203 0.0 3.2 0.00 0.00 0.00 54 1011.0
20260504174504 22 201 0.0 1.6 0.00 0.00 0.00 54 1011.0
20260504174004 22 201 0.0 1.6 0.00 0.00 0.00 55 1011.0
20260504173504 22 0 0.0 0.0 0.00 0.00 0.00 56 1011.0
20260504173005 22 0 0.0 0.0 0.00 0.00 0.00 55 1010.9
20260504172505 21 0 0.0 0.0 0.00 0.00 0.00 58 1011.0
20260504172005 21 0 0.0 0.0 0.00 0.00 0.00 57 1011.0
20260504171504 21 0 0.0 0.0 0.00 0.00 0.00 57 1010.9
20260504171006 21 0 0.0 0.0 0.00 0.00 0.00 61 1010.9
20260504170505 21 0 0.0 0.0 0.00 0.00 0.00 60 1010.9
20260504151005 17 0 0.0 0.0 0.00 0.00 0.00 61 1010.3
20260504150505 17 0 0.0 0.0 0.00 0.00 0.00 64 1010.3
20260504141004 10 0 0.0 0.0 0.00 0.00 0.00 91 1010.1
20260504140504 10 0 0.0 0.0 0.00 0.00 0.00 90 1010.0
20260504100504 12 0 0.0 0.0 0.00 0.00 0.00 80 1009.2
20260504082005 13 0 0.0 0.0 0.00 0.00 0.00 80 1009.2
20260504081504 13 0 0.0 0.0 0.00 0.00 0.00 79 1009.3
20260504081005 13 0 0.0 0.0 0.00 0.00 0.00 79 1009.2
20260504080504 13 0 0.0 0.0 0.00 0.00 0.00 78 1009.2
20260504050006 18 0 0.0 0.0 0.00 0.00 0.00 60 1009.1
20260504045504 19 0 0.0 0.0 0.00 0.00 0.00 60 1009.2
20260504045005 19 0 0.0 0.0 0.00 0.00 0.00 58 1009.2
20260504044504 20 0 0.0 0.0 0.00 0.00 0.00 57 1009.2
20260504044004 20 0 0.0 0.0 0.00 0.00 0.00 56 1009.1
20260504043007 20 0 0.0 0.0 0.00 0.00 0.00 55 1009.0
20260504042504 20 0 0.0 0.0 0.00 0.00 0.00 55 1009.0
20260504042004 21 0 0.0 0.0 0.00 0.00 0.00 54 1008.9
20260504041005 21 0 0.0 0.0 0.00 0.00 0.00 53 1008.9
20260504040504 21 0 0.0 0.0 0.00 0.00 0.00 53 1008.9
20260504040006 21 0 0.0 0.0 0.00 0.00 0.00 52 1008.9
20260504035504 21 0 0.0 0.0 0.00 0.00 0.00 51 1008.9
20260504035006 21 0 0.0 0.0 0.00 0.00 0.00 50 1008.8
20260504034005 22 0 0.0 0.0 0.00 0.00 0.00 49 1008.7
20260504033504 22 0 0.0 0.0 0.00 0.00 0.00 49 1008.7
20260504032504 22 0 0.0 0.0 0.00 0.00 0.00 48 1008.7
20260504032006 22 0 0.0 0.0 0.00 0.00 0.00 48 1008.6
20260504031504 23 0 0.0 0.0 0.00 0.00 0.00 47 1008.6
20260504031004 23 0 0.0 0.0 0.00 0.00 0.00 46 1008.6
20260504030005 23 23 0.0 1.6 0.00 0.00 0.00 45 1008.6
20260504025005 24 10 0.0 8.0 0.00 0.00 0.00 44 1008.6
20260504024004 24 12 0.0 4.8 0.00 0.00 0.00 44 1008.5
20260504023504 24 22 0.0 4.8 0.00 0.00 0.00 44 1008.5
20260504023005 25 25 0.0 3.2 0.00 0.00 0.00 44 1008.5
20260504022504 25 15 0.0 4.8 0.00 0.00 0.00 43 1008.5
20260504022005 25 16 0.0 6.4 0.00 0.00 0.00 43 1008.5
20260504021504 25 16 0.0 6.4 0.00 0.00 0.00 43 1008.6
20260504021005 25 19 0.0 6.4 0.00 0.00 0.00 43 1008.6
20260504020504 25 20 0.0 6.4 0.00 0.00 0.00 42 1008.5
20260504020005 26 14 0.0 8.0 0.00 0.00 0.00 42 1008.6
20260504015504 26 13 0.0 8.0 0.00 0.00 0.00 42 1008.6
20260504015005 26 13 0.0 3.2 0.00 0.00 0.00 41 1008.6
20260504014504 26 17 0.0 3.2 0.00 0.00 0.00 41 1008.7
20260504014005 26 15 0.0 4.8 0.00 0.00 0.00 41 1008.7
20260504013504 26 19 0.0 6.4 0.00 0.00 0.00 41 1008.7
20260504013006 26 20 0.0 6.4 0.00 0.00 0.00 41 1008.7
20260504012504 26 14 0.0 6.4 0.00 0.00 0.00 41 1008.8
20260504011505 26 17 0.0 8.0 0.00 0.00 0.00 41 1008.8
20260504011005 26 23 0.0 8.0 0.00 0.00 0.00 40 1008.9
20260504010504 26 26 0.0 3.2 0.00 0.00 0.00 41 1008.9
20260504005504 26 0 0.0 0.0 0.00 0.00 0.00 41 1008.9
20260504005005 26 0 0.0 0.0 0.00 0.00 0.00 42 1009.0
20260504004504 26 0 0.0 0.0 0.00 0.00 0.00 41 1009.0
20260504004004 26 29 0.0 3.2 0.00 0.00 0.00 41 1009.1
20260504003504 26 17 0.0 3.2 0.00 0.00 0.00 42 1009.1
20260504003004 26 19 0.0 4.8 0.00 0.00 0.00 41 1009.2
20260504002504 26 23 0.0 4.8 0.00 0.00 0.00 41 1009.2
20260504002004 27 27 0.0 4.8 0.00 0.00 0.00 41 1009.3
20260504001004 27 30 0.0 4.8 0.00 0.00 0.00 41 1009.3
20260504000504 27 24 0.0 9.7 0.00 0.00 0.00 41 1009.4
20260504000004 27 18 0.0 11.3 0.00 0.00 0.00 41 1009.4
20260503235504 27 17 0.0 11.3 0.00 0.00 0.00 40 1009.6
20260503235005 27 18 0.0 6.4 0.00 0.00 0.00 40 1009.6
20260503234504 27 15 0.0 4.8 0.00 0.00 0.00 40 1009.6
20260503234006 27 16 0.0 11.3 0.00 0.00 0.00 40 1009.6
20260503233504 27 15 0.0 11.3 0.00 0.00 0.00 40 1009.6
20260503233004 27 12 0.0 12.9 0.00 0.00 0.00 41 1009.7
20260503232005 28 14 0.0 8.0 0.00 0.00 0.00 39 1009.8
20260503231504 27 14 0.0 4.8 0.00 0.00 0.00 40 1009.9
20260503231005 27 19 0.0 9.7 0.00 0.00 0.00 39 1009.9
20260503230505 28 18 0.0 9.7 0.00 0.00 0.00 39 1010.0
20260503230006 28 17 0.0 3.2 0.00 0.00 0.00 38 1010.1
20260503225005 28 9 0.0 4.8 0.00 0.00 0.00 39 1010.2
20260503224504 28 6 0.0 4.8 0.00 0.00 0.00 38 1010.3
20260503224005 28 8 0.0 3.2 0.00 0.00 0.00 39 1010.4
20260503223504 28 21 0.0 14.5 0.00 0.00 0.00 39 1010.4
20260503223004 28 21 0.0 14.5 0.00 0.00 0.00 38 1010.5
20260503222504 28 18 0.0 6.4 0.00 0.00 0.00 39 1010.5
20260503222004 28 19 0.0 11.3 0.00 0.00 0.00 39 1010.6
20260503221505 28 21 0.0 11.3 0.00 0.00 0.00 39 1010.6
20260503221004 28 23 0.0 6.4 0.00 0.00 0.00 38 1010.6
20260503220504 28 23 0.0 6.4 0.00 0.00 0.00 40 1010.6
20260503215503 28 341 0.0 3.2 0.00 0.00 0.00 39 1010.7
20260503214504 27 28 0.0 3.2 0.00 0.00 0.00 41 1010.9
20260503214004 27 26 0.0 3.2 0.00 0.00 0.00 42 1010.9
20260503213006 27 21 0.0 4.8 0.00 0.00 0.00 40 1011.0
20260503212504 27 22 0.0 4.8 0.00 0.00 0.00 42 1011.1